{"data":{"norad_id":58922,"intl_designator":"2024-024F","name":"ZHIXING-2A","alt_names":[],"object_type":"PAYLOAD","status":"ACTIVE","operator":null,"country":"PRC","launch_date":"2024-02-03","launch_site_code":"SCSLA","launch_vehicle":null,"mission":null,"orbit_class":"UNKNOWN","rcs_meters":null,"size_class":null,"mass_kg":null,"dimensions":null,"purposes":[],"wikipedia_slug":null,"has_3d_model":false,"image_url":null,"decayed_at":null,"tle_current":{"epoch":"2026-09-22T23:21:55.368864Z","epoch_age_seconds":38690,"freshness":"FRESH","line1":"1 58922U 24024F   26265.97355751  .00006024  00000+0  25451-3 0  9992","line2":"2 58922  97.2940 327.7971 0013022  62.2864 297.9693 15.23529206146147","mean_motion":15.23529206,"eccentricity":0.0013022,"inclination_deg":97.294,"raan_deg":327.7971,"arg_perigee_deg":62.2864,"mean_anomaly_deg":297.9693,"bstar":0.00025451,"rev_number":14614,"period_min":94.517387282696,"perigee_km":486.25503124237,"apogee_km":504.15596444375,"semimajor_km":6873.3424978431,"source":"CELESTRAK","updated_at":"2026-09-23T09:00:19.074118Z"}}}